Location: Bremen
(53.0793°N, 8.8017°E)
Time: 22:24:33
(UTC+02:00)

Transit 2A - All Passes

Search period start: 12 April 2024 00:00
Search period end: 22 April 2024 00:00
Orbit: 597 x 955 km, 66.7° (Epoch: 11 April)

Date Brightness Start Highest point End Pass type
(mag) Time Alt. Az. Time Alt. Az. Time Alt. Az.
12 Apr - 09:49:06 10° SSW 09:53:18 46° ESE 09:57:50 10° NE daylight
12 Apr - 11:32:18 10° WSW 11:36:32 38° NW 11:41:06 10° NNE daylight
12 Apr - 13:17:40 10° NW 13:20:59 18° N 13:24:30 10° NNE daylight
12 Apr - 15:02:14 10° NNW 15:05:54 20° NNE 15:09:50 10° ENE daylight
12 Apr - 16:45:18 10° NW 16:50:14 44° NE 16:55:40 10° ESE daylight
12 Apr - 18:28:22 10° NW 18:33:31 51° WSW 18:39:08 10° SSE daylight
12 Apr - 20:15:00 10° W 20:15:38 10° WSW 20:16:16 10° WSW daylight
13 Apr - 09:14:25 10° S 09:18:21 32° ESE 09:22:32 10° NE daylight
13 Apr - 10:56:54 10° WSW 11:01:16 49° NW 11:06:00 10° NE daylight
13 Apr - 12:42:02 10° WNW 12:45:31 20° NNW 12:49:14 10° NNE daylight
13 Apr - 14:26:58 10° NW 14:30:27 18° N 14:34:07 10° NE daylight
13 Apr - 16:10:13 10° NNW 16:14:57 36° NE 16:20:08 10° E daylight
13 Apr - 17:53:10 10° NW 17:58:26 68° SW 18:04:14 10° SSE daylight
13 Apr - 19:37:48 10° WNW 19:40:49 15° WSW 19:43:58 10° SW daylight
14 Apr - 08:39:59 10° SSE 08:43:26 23° ESE 08:47:05 10° ENE daylight
14 Apr - 10:21:37 10° SW 10:26:03 66° NW 10:30:52 10° NE daylight
14 Apr - 12:06:24 10° WNW 12:10:05 22° NNW 12:14:02 10° NNE daylight
14 Apr - 13:51:38 10° NW 13:54:57 18° N 13:58:28 10° NE daylight
14 Apr - 15:35:08 10° NNW 15:39:38 30° NNE 15:44:32 10° E daylight
14 Apr - 17:18:02 10° NW 17:23:20 89° SW 17:29:11 10° SE daylight
14 Apr - 19:01:58 10° WNW 19:05:57 21° WSW 19:10:10 10° SSW daylight
15 Apr - 08:05:55 10° SE 08:08:36 16° ESE 08:11:22 10° ENE daylight
15 Apr - 09:46:27 10° SW 09:50:54 89° NW 09:55:45 10° NE daylight
15 Apr - 11:30:47 10° W 11:34:40 26° NNW 11:38:52 10° NNE daylight
15 Apr - 13:16:12 10° NW 13:19:28 17° N 13:22:54 10° NE daylight
15 Apr - 15:00:01 10° NNW 15:04:15 26° NNE 15:08:50 10° E daylight
15 Apr - 16:42:55 10° NW 16:48:11 72° NE 16:53:59 10° SE daylight
15 Apr - 18:26:27 10° WNW 18:31:02 28° WSW 18:35:57 10° S daylight
16 Apr - 07:32:52 10° ESE 07:33:48 11° ESE 07:34:45 10° E daylight
16 Apr - 09:11:25 10° SSW 09:15:48 66° SE 09:20:34 10° NE daylight
16 Apr - 10:55:13 10° W 10:59:18 31° NNW 11:03:44 10° NNE daylight
16 Apr - 12:40:40 10° NW 12:43:57 18° N 12:47:26 10° NE daylight
16 Apr - 14:24:52 10° NNW 14:28:51 22° NNE 14:33:07 10° ENE daylight
16 Apr - 16:07:50 10° NW 16:12:59 56° NE 16:18:41 10° ESE daylight
16 Apr - 17:51:05 10° NW 17:56:03 38° WSW 18:01:26 10° S daylight
17 Apr - 08:36:33 10° SSW 08:40:47 46° ESE 08:45:21 10° NE daylight
17 Apr - 10:19:43 10° WSW 10:23:59 39° NW 10:28:38 10° NNE daylight
17 Apr - 12:05:04 10° NW 12:08:28 19° N 12:12:04 10° NE daylight
17 Apr - 13:49:39 10° NNW 13:53:24 20° NNE 13:57:23 10° ENE daylight
17 Apr - 15:32:44 10° NW 15:37:44 44° NE 15:43:14 10° ESE daylight
17 Apr - 17:15:50 10° NW 17:21:01 51° WSW 17:26:43 10° SSE daylight
17 Apr - 19:02:04 10° W 19:03:10 11° WSW 19:04:17 10° WSW daylight
18 Apr - 08:01:52 10° S 08:05:49 32° ESE 08:10:02 10° NE daylight
18 Apr - 09:44:20 10° WSW 09:48:43 50° NW 09:53:31 10° NE daylight
18 Apr - 11:29:26 10° WNW 11:33:00 20° NNW 11:36:47 10° NNE daylight
18 Apr - 13:14:23 10° NW 13:17:55 19° N 13:21:41 10° NE daylight
18 Apr - 14:57:39 10° NNW 15:02:27 36° NE 15:07:42 10° E daylight
18 Apr - 16:40:38 10° NW 16:45:57 69° SW 16:51:49 10° SSE daylight
18 Apr - 18:25:12 10° WNW 18:28:21 15° WSW 18:31:37 10° SW daylight
19 Apr - 07:27:26 10° SSE 07:30:55 23° ESE 07:34:35 10° ENE daylight
19 Apr - 09:09:02 10° SW 09:13:30 67° NW 09:18:24 10° NE daylight
19 Apr - 10:53:47 10° WNW 10:57:32 23° NNW 11:01:35 10° NNE daylight
19 Apr - 12:39:02 10° NW 12:42:25 18° N 12:46:02 10° NE daylight
19 Apr - 14:22:33 10° NNW 14:27:07 30° NNE 14:32:04 10° E daylight
19 Apr - 16:05:29 10° NW 16:10:51 89° SW 16:16:45 10° SE daylight
19 Apr - 17:49:23 10° WNW 17:53:28 21° WSW 17:57:47 10° SSW daylight
20 Apr - 06:53:22 10° SE 06:56:04 16° ESE 06:58:51 10° ENE daylight
20 Apr - 08:33:52 10° SW 08:38:21 90° SW 08:43:16 10° NE daylight
20 Apr - 10:18:11 10° W 10:22:08 27° NNW 10:26:24 10° NNE daylight
20 Apr - 12:03:35 10° NW 12:06:55 18° N 12:10:27 10° NE daylight
20 Apr - 13:47:26 10° NNW 13:51:44 26° NNE 13:56:23 10° E daylight
20 Apr - 15:30:22 10° NW 15:35:41 71° NE 15:41:33 10° SE daylight
20 Apr - 17:13:52 10° NW 17:18:32 29° WSW 17:23:32 10° S daylight
21 Apr - 06:20:20 10° ESE 06:21:17 11° ESE 06:22:13 10° E daylight
21 Apr - 07:58:51 10° SSW 08:03:16 65° SE 08:08:05 10° NE daylight
21 Apr - 09:42:37 10° W 09:46:46 32° NNW 09:51:16 10° NNE daylight
21 Apr - 11:28:03 10° NW 11:31:25 18° N 11:34:59 10° NE daylight
21 Apr - 13:12:16 10° NNW 13:16:19 23° NNE 13:20:40 10° ENE daylight
21 Apr - 14:55:16 10° NW 15:00:29 56° NE 15:06:13 10° ESE daylight
21 Apr - 16:38:31 10° NW 16:43:33 39° WSW 16:49:01 10° S daylight
